[[{"header":{"parameterUnit":"m.s-1","parameterCategory":1,"la1":30.2991,"la2":30.254,"lo1":-89.0895,"lo2":-89.0444,"dy":0.0017,"dx":0.0017,"nx":28,"ny":28,"refTime":"2023-08-20T21:00:00:Z","depth":0,"parameterNumber":2,"parameterNumberName":"U-component_of_WINDS"},"data":[0,0,0,0,0,0,0,0,0,0,0,0,0,0,0,0,0,0,0,0,0,0,0,0,0,0,0,0,0,0,0,0,0,0,0,0,0,0,0,0,0,0,0,0,0,0,0,0,0,0,0,0,0,0,0,0,0,0,-5.1351,-5.1352,0,-5.1415,-5.1416,-5.1417,-5.132,-5.1317,-5.1313,-5.131,-5.1373,-5.1377,-5.1382,0,0,0,0,0,0,0,0,0,0,0,0,0,-5.1141,-5.1145,-5.1351,-5.1352,-5.1353,-5.1415,-5.1416,-5.1417,-5.1321,-5.1317,-5.1313,-5.1309,-5.1371,-5.1377,-5.1382,0,0,0,0,0,0,0,0,0,0,0,0,0,-5.1221,-5.1147,-5.1351,-5.1312,-5.1309,-5.1415,-5.1416,-5.1417,-5.1322,-5.1317,-5.1312,-5.1307,-5.1369,-5.1376,-5.1383,-5.1529,0,0,-5.1405,-5.1408,0,0,0,0,0,0,0,0,-5.1217,-5.1229,-5.1317,-5.1315,-5.1312,-5.1355,-5.1365,-5.1455,-5.1323,-5.1317,-5.131,-5.1304,-5.1371,-5.1377,-5.14,-5.1532,-5.1534,-5.1406,-5.141,-5.1413,-5.1415,0,0,0,0,0,0,0,-5.1212,-5.1226,-5.1376,-5.1318,-5.1315,-5.129,-5.1296,-5.1381,-5.1371,-5.1317,-5.131,-5.1319,-5.1368,-5.1394,-5.1401,-5.1535,-5.1406,-5.1412,-5.1416,-5.1419,-5.1788,-5.1793,0,0,0,0,0,0,-5.1211,-5.1222,-5.1374,-5.1378,-5.1251,-5.1298,-5.1305,-5.1346,-5.137,-5.1369,-5.1324,-5.1315,-5.1384,-5.1393,-5.1403,-5.1573,-5.1413,-5.142,-5.1424,-5.1782,-5.1789,-5.1795,0,0,0,0,0,0,-5.1207,-5.1226,-5.1372,-5.1298,-5.1315,-5.1307,-5.1354,-5.135,-5.1375,-5.1375,-5.1372,-5.1352,-5.138,-5.1393,-5.1498,-5.1574,-5.1423,-5.143,-5.1776,-5.1784,-5.1792,-5.1916,0,0,0,0,0,0,-5.1201,-5.1225,-5.1281,-5.13,-5.1319,-5.1467,-5.1359,-5.1355,-5.1388,-5.1377,-5.1401,-5.14,-5.1377,-5.1488,-5.1505,-5.1581,-5.1435,-5.1769,-5.178,-5.1789,-5.1905,-5.1928,-5.1947,0,0,0,0,0,-5.1194,-5.1313,-5.1284,-5.1303,-5.1389,-5.1472,-5.1482,-5.1455,-5.1395,-5.145,-5.145,-5.1399,-5.1564,-5.15,-5.1518,-5.1598,-5.1764,-5.1777,-5.1789,-5.1896,-5.1923,-5.1946,0,0,0,0,0,0,-5.13,-5.1314,-5.1283,-5.1411,-5.1441,-5.1455,-5.1524,-5.1485,-5.1532,-5.1519,-5.1483,-5.1489,-5.1602,-5.161,-5.1539,-5.1739,-5.1654,-5.167,-5.1729,-5.1755,-5.1775,-5.1769,-5.1441,0,0,0,0,0,-5.1339,-5.1406,-5.1414,-5.1527,-5.1544,-5.1532,-5.1567,-5.1544,-5.1572,-5.1584,-5.1591,-5.1621,-5.1679,-5.1718,-5.1771,-5.1907,-5.191,-5.1971,-5.1992,-5.2009,-5.2023,-5.2094,-5.212,-5.1835,-5.1835,-5.1835,0,0,-5.1419,-5.1435,-5.1479,-5.1549,-5.1569,-5.1638,-5.1543,-5.162,-5.167,-5.1595,-5.1695,-5.1702,-5.1732,-5.1853,-5.1907,-5.1864,-5.2103,-5.2025,-5.2038,-5.2043,-5.2109,-5.2136,-5.216,-5.1844,-5.1842,-5.1841,0,0,-5.1599,-5.1619,-5.1714,-5.1737,-5.177,-5.1761,-5.1785,-5.1805,-5.1807,-5.1907,-5.1852,-5.1911,-5.2013,-5.2036,-5.2061,-5.2252,-5.2205,-5.227,-5.2378,-5.2448,-5.247,-5.249,-5.2555,-5.258,-5.2285,-5.2285,-5.2285,0,-5.1693,-5.1796,-5.1767,-5.1849,-5.188,-5.1818,-5.1913,-5.1936,-5.1984,-5.2007,-5.1959,-5.2085,-5.2101,-5.2226,-5.2272,-5.2296,-5.2319,-5.2266,-5.2469,-5.2489,-5.2507,-5.2569,-5.2594,-5.2293,-5.2292,-5.2291,-5.229,0,-5.1909,-5.1982,-5.2054,-5.2104,-5.2144,-5.2232,-5.2215,-5.2259,-5.2233,-5.223,-5.2332,-5.2349,-5.2405,-5.2433,-5.2408,-5.2555,-5.2527,-5.2476,-5.2388,-5.2542,-5.26,-5.2623,-5.2303,-5.2301,-5.2298,-5.2297,0,0,-5.2155,-5.2189,-5.2216,-5.2237,-5.227,-5.2324,-5.2409,-5.2465,-5.2502,-5.2539,-5.2607,-5.2696,-5.2648,-5.2676,-5.2654,-5.2715,-5.2863,-5.2655,-5.2655,-5.2691,-5.3023,-5.306,-5.3089,-5.2834,-5.2839,-5.2842,-5.302,0,-5.2333,-5.248,-5.2458,-5.2599,-5.2665,-5.2607,-5.2681,-5.2708,-5.2708,-5.2762,-5.2761,-5.2824,-5.2757,-5.2774,-5.2833,-5.2833,-5.2929,-5.282,-5.2896,-5.2899,-5.2887,-5.3119,-5.3159,-5.3326,-5.3043,-5.3047,-5.3049,0,-5.2559,-5.2605,-5.2753,-5.2775,-5.2802,-5.2869,-5.2917,-5.2971,-5.3001,-5.2996,-5.3029,-5.2996,-5.3079,-5.2993,-5.3107,-5.3033,-5.3063,-5.3068,-5.3074,-5.3078,-5.2981,-5.3127,-5.3378,-5.3403,-5.3085,-5.3082,-5.308,0,-5.2721,-5.282,-5.2921,-5.2941,-5.297,-5.3018,-5.3032,-5.3057,-5.3092,-5.3135,-5.3156,-5.3209,-5.3237,-5.3277,-5.3258,-5.3198,-5.3375,-5.3287,-5.3371,-5.3372,-5.3408,-5.3406,-5.3666,-5.3433,-5.3432,-5.3432,-5.3431,0,-5.292,-5.3013,-5.2994,-5.3056,-5.3157,-5.3131,-5.3232,-5.3239,-5.3262,-5.3323,-5.3277,-5.3336,-5.3308,-5.3364,-5.335,-5.3445,-5.3459,-5.3456,-5.3451,-5.3459,-5.3459,-5.3476,-5.3462,-5.3439,-5.3437,-5.3436,-5.3435,0,-5.3117,-5.3108,-5.3214,-5.3233,-5.324,-5.3314,-5.333,-5.3387,-5.3384,-5.3463,-5.348,-5.3474,-5.3538,-5.3524,-5.3594,-5.3584,-5.3703,-5.3685,-5.3693,-5.3688,-5.3771,-5.3763,-5.4049,-5.4085,-5.3831,-5.3834,-5.3836,0,-5.3243,-5.3313,-5.334,-5.3378,-5.3396,-5.3459,-5.3495,-5.3472,-5.351,-5.355,-5.3603,-5.3663,-5.3709,-5.3814,-5.3815,-5.3869,-5.3849,-5.3946,-5.3857,-5.3862,-5.3848,-5.3843,-5.3849,-5.3963,-5.3966,-5.3968,-5.397,0,-5.3467,-5.346,-5.3513,-5.3567,-5.3611,-5.3651,-5.3686,-5.372,-5.37,-5.3746,-5.3811,-5.3848,-5.392,-5.398,-5.4029,-5.4042,-5.4002,-5.3999,-5.402,-5.4028,-5.4029,-5.4027,-5.3739,-5.3991,-5.3989,-5.3988,-5.3987,-5.3986,-5.363,-5.3689,-5.3718,-5.3779,-5.3804,-5.3839,-5.3894,-5.3898,-5.3953,-5.401,-5.3993,-5.4067,-5.4095,-5.4157,-5.4177,-5.4233,-5.4197,-5.4229,-5.4236,-5.4244,-5.4253,-5.4023,-5.4243,-5.4242,-5.4241,-5.4241,-5.424,0,-5.385,-5.3866,-5.3923,-5.3975,-5.4023,-5.3984,-5.4022,-5.4064,-5.4131,-5.416,-5.4208,-5.4283,-5.4341,-5.4348,-5.4402,-5.4446,-5.443,-5.4461,-5.4456,-5.4459,-5.4284,-5.4259,-5.4474,-5.4474,-5.4474,-5.4474,-5.4474,-5.4474,-5.397,-5.4067,-5.4064,-5.4173,-5.4188,-5.4261,-5.4285,-5.4317,-5.434,-5.4426,-5.4475,-5.448,-5.45,-5.4556,-5.4607,-5.4607,-5.4628,-5.4667,-5.466,-5.4495,-5.4472,-5.445,-5.4425,-5.4672,-5.4673,-5.4831,-5.4832,-5.4833]},{"header":{"parameterUnit":"m.s-1","parameterCategory":1,"la1":30.2991,"la2":30.254,"lo1":-89.0895,"lo2":-89.0444,"dy":0.0017,"dx":0.0017,"nx":28,"ny":28,"refTime":"2023-08-20T21:00:00:Z","depth":0,"parameterNumber":3,"parameterNumberName":"V-component_of_WINDS"},"data":[0,0,0,0,0,0,0,0,0,0,0,0,0,0,0,0,0,0,0,0,0,0,0,0,0,0,0,0,0,0,0,0,0,0,0,0,0,0,0,0,0,0,0,0,0,0,0,0,0,0,0,0,0,0,0,0,0,0,1.5527,1.5527,0,1.5535,1.5535,1.5535,1.5514,1.5513,1.5512,1.5512,1.5518,1.5518,1.5519,0,0,0,0,0,0,0,0,0,0,0,0,0,1.5494,1.5495,1.5527,1.5527,1.5527,1.5535,1.5535,1.5535,1.5514,1.5513,1.5512,1.5511,1.5517,1.5518,1.5519,0,0,0,0,0,0,0,0,0,0,0,0,0,1.5506,1.5495,1.5527,1.5518,1.5517,1.5535,1.5535,1.5535,1.5514,1.5513,1.5512,1.5511,1.5517,1.5518,1.5519,1.5546,0,0,1.5523,1.5523,0,0,0,0,0,0,0,0,1.5505,1.5507,1.5519,1.5518,1.5518,1.5522,1.5525,1.5539,1.5514,1.5515,1.5512,1.5511,1.552,1.5521,1.5524,1.5546,1.5546,1.5523,1.5524,1.5524,1.5524,0,0,0,0,0,0,0,1.5504,1.5506,1.553,1.5519,1.5518,1.5513,1.5514,1.5528,1.5523,1.5515,1.5513,1.5515,1.5519,1.5523,1.5524,1.5547,1.5523,1.5524,1.5525,1.5525,1.5593,1.5594,0,0,0,0,0,0,1.5505,1.5506,1.553,1.553,1.5509,1.5514,1.5515,1.5522,1.5523,1.5522,1.5515,1.5514,1.5522,1.5523,1.5524,1.5556,1.5524,1.5525,1.5526,1.5591,1.5593,1.5594,0,0,0,0,0,0,1.5504,1.5507,1.5529,1.5518,1.552,1.5516,1.5524,1.5522,1.5526,1.5523,1.5522,1.552,1.5521,1.5523,1.5541,1.5556,1.5526,1.5527,1.559,1.5592,1.5593,1.562,0,0,0,0,0,0,1.5503,1.5507,1.5517,1.5518,1.5521,1.5546,1.5525,1.5523,1.5528,1.5526,1.5527,1.5527,1.552,1.554,1.5542,1.5557,1.5528,1.5589,1.5591,1.5593,1.5618,1.5622,1.5626,0,0,0,0,0,1.5502,1.5523,1.5517,1.552,1.5533,1.5547,1.5549,1.5542,1.553,1.554,1.5538,1.5527,1.5554,1.5542,1.5545,1.556,1.5588,1.559,1.5593,1.5616,1.5621,1.5626,0,0,0,0,0,0,1.5522,1.5523,1.5517,1.5539,1.5543,1.5544,1.5556,1.5548,1.5555,1.5552,1.5543,1.5543,1.5564,1.5564,1.555,1.5587,1.5569,1.5572,1.5586,1.5591,1.5595,1.5594,1.5529,0,0,0,0,0,1.553,1.5542,1.5541,1.5561,1.5564,1.556,1.5565,1.556,1.5564,1.5565,1.5565,1.5569,1.5578,1.5585,1.5593,1.5618,1.5618,1.563,1.5635,1.5638,1.5641,1.5655,1.566,1.5602,1.5602,1.5602,0,0,1.5544,1.5546,1.5554,1.5565,1.5568,1.558,1.5561,1.5574,1.5584,1.5567,1.5585,1.5585,1.5589,1.5611,1.562,1.5611,1.5657,1.5641,1.5644,1.5645,1.5658,1.5663,1.5668,1.5604,1.5603,1.5603,0,0,1.5577,1.558,1.5597,1.5601,1.5606,1.5604,1.5608,1.561,1.561,1.5628,1.5616,1.5627,1.5644,1.5647,1.5651,1.5689,1.5679,1.5692,1.5714,1.5728,1.5732,1.5736,1.575,1.5755,1.5695,1.5695,1.5695,0,1.5595,1.5613,1.5607,1.5622,1.5627,1.5615,1.5632,1.5636,1.5644,1.5648,1.5638,1.566,1.5662,1.5685,1.5694,1.5698,1.5703,1.5691,1.5732,1.5736,1.574,1.5753,1.5758,1.5696,1.5696,1.5696,1.5696,0,1.5634,1.5648,1.5661,1.567,1.5677,1.5693,1.569,1.5698,1.5693,1.5691,1.5711,1.5713,1.5722,1.5727,1.5721,1.575,1.5745,1.5734,1.5716,1.5747,1.5759,1.5764,1.5699,1.5698,1.5698,1.5697,0,0,1.5678,1.5686,1.569,1.5695,1.5701,1.5711,1.5727,1.5738,1.5745,1.5751,1.5765,1.578,1.5771,1.5776,1.5771,1.5783,1.5813,1.5771,1.5771,1.5778,1.5846,1.5853,1.5859,1.5807,1.5808,1.5809,1.5845,0,1.5711,1.5739,1.5735,1.5762,1.5775,1.5765,1.5779,1.5784,1.5784,1.5795,1.5794,1.5806,1.5793,1.5796,1.5807,1.5807,1.5826,1.5804,1.5819,1.582,1.5818,1.5865,1.5873,1.5907,1.585,1.5851,1.5851,0,1.5752,1.5761,1.579,1.5796,1.5801,1.5814,1.5824,1.5835,1.5841,1.584,1.5847,1.584,1.5857,1.584,1.5862,1.5847,1.5854,1.5855,1.5856,1.5856,1.5837,1.5867,1.5918,1.5923,1.5858,1.5858,1.5857,0,1.5781,1.5801,1.5821,1.5825,1.5833,1.5842,1.5845,1.5851,1.5858,1.5867,1.5872,1.5882,1.5888,1.5896,1.5893,1.5881,1.5917,1.5899,1.5916,1.5916,1.5923,1.5922,1.5976,1.5928,1.5928,1.5928,1.5928,0,1.5817,1.5835,1.5834,1.5847,1.5867,1.5863,1.5883,1.5885,1.5891,1.5904,1.5895,1.5907,1.5902,1.5914,1.5911,1.5931,1.5934,1.5933,1.5932,1.5934,1.5934,1.5937,1.5934,1.5929,1.5929,1.5929,1.5928,0,1.5852,1.5852,1.5874,1.588,1.5882,1.5897,1.5902,1.5914,1.5914,1.5931,1.5934,1.5934,1.5948,1.5946,1.5961,1.5959,1.5984,1.598,1.5982,1.5981,1.5998,1.5996,1.6054,1.6062,1.601,1.601,1.6011,0,1.5875,1.5889,1.5898,1.5906,1.5911,1.5924,1.5932,1.5929,1.5938,1.5948,1.5958,1.5972,1.5982,1.6004,1.6006,1.6017,1.6013,1.6033,1.6015,1.6016,1.6014,1.6013,1.6014,1.6036,1.6037,1.6037,1.6038,0,1.5916,1.5916,1.5928,1.5941,1.5951,1.5961,1.5969,1.5977,1.5975,1.5985,1.6,1.6008,1.6024,1.6037,1.6049,1.6052,1.6045,1.6044,1.6048,1.605,1.605,1.605,1.5991,1.6042,1.6042,1.6041,1.6041,1.6041,1.5945,1.5958,1.5966,1.5981,1.5987,1.5996,1.6008,1.6011,1.6024,1.6037,1.6035,1.6052,1.6059,1.6074,1.6079,1.6092,1.6084,1.6091,1.6092,1.6094,1.6096,1.6049,1.6094,1.6094,1.6093,1.6093,1.6093,0,1.5985,1.5991,1.6004,1.6018,1.603,1.6024,1.6034,1.6043,1.6058,1.6067,1.6078,1.6095,1.6109,1.6112,1.6125,1.6135,1.6132,1.6138,1.6137,1.6138,1.6102,1.6097,1.6141,1.6141,1.6141,1.6141,1.6141,1.614,1.6007,1.6029,1.603,1.6055,1.6061,1.6078,1.6084,1.6093,1.61,1.612,1.6132,1.6134,1.6141,1.6155,1.6167,1.6167,1.6172,1.618,1.618,1.6145,1.614,1.6136,1.6131,1.6181,1.6181,1.6215,1.6215,1.6215]}]]